QNT871 UZTT-ZGGG

Flight info

Callsign QNT871
Flight time 6h 15m
Altitude 37000
Route K0872F370 TISI2E TISIB L143 TIPSA M610 RULAD/K0865S1130 A343 POSOT B215 FKG W192 AKLAS G470 BIKNO W620 DNH/K0869S1190 W620 TOSAP W191 DNC W565 UPKOD W195 LAXAL/K0867S1160 W195 VIDEK/K0889S1190 W195 OMBON W245 OVRAL B330 DAGDI W234 NIXID B330 KWE W181 DUDIT A599 AVPAM B330 GYA GYA8
Aircraft A332/H-Q/L

Departure

Time 2026-04-10 13:07
Airport Tashkent International Airport (UZTT)

Arrival

Time 2026-04-10 19:22
Airport Guangzhou Baiyun International Airport (ZGGG)
Time Latitude Longitude Altitude Speed Heading
2026-04-10 12:39 41.26143 69.27324 1385 ft 0 kts 82°
2026-04-10 12:56 41.26140 69.27298 1380 ft 4 kts 81°
2026-04-10 12:56 41.26135 69.27263 1380 ft 4 kts 80°
2026-04-10 12:56 41.26131 69.27228 1380 ft 3 kts 81°
2026-04-10 12:57 41.26129 69.27194 1380 ft 4 kts 99°
2026-04-10 12:57 41.26137 69.27162 1380 ft 4 kts 123°
2026-04-10 12:57 41.26153 69.27135 1380 ft 4 kts 137°
2026-04-10 12:57 41.26159 69.27129 1380 ft 0 kts 138°
2026-04-10 12:59 41.26158 69.27130 1380 ft 1 kts 138°
2026-04-10 12:59 41.26139 69.27152 1380 ft 6 kts 138°
2026-04-10 13:00 41.26095 69.27204 1380 ft 9 kts 138°
2026-04-10 13:00 41.26046 69.27261 1383 ft 9 kts 139°
2026-04-10 13:00 41.25997 69.27317 1381 ft 9 kts 139°
2026-04-10 13:00 41.25948 69.27373 1381 ft 9 kts 139°
2026-04-10 13:01 41.25899 69.27430 1380 ft 9 kts 138°
2026-04-10 13:01 41.25850 69.27485 1381 ft 9 kts 148°
2026-04-10 13:01 41.25791 69.27471 1383 ft 9 kts 224°
2026-04-10 13:01 41.25766 69.27378 1381 ft 14 kts 259°
2026-04-10 13:02 41.25749 69.27230 1381 ft 19 kts 262°
2026-04-10 13:02 41.25729 69.27048 1381 ft 20 kts 261°
2026-04-10 13:02 41.25708 69.26867 1383 ft 20 kts 262°
2026-04-10 13:02 41.25688 69.26684 1382 ft 20 kts 262°
2026-04-10 13:03 41.25669 69.26502 1386 ft 20 kts 262°
2026-04-10 13:03 41.25649 69.26321 1384 ft 20 kts 262°
2026-04-10 13:03 41.25631 69.26162 1382 ft 13 kts 262°
2026-04-10 13:03 41.25619 69.26046 1382 ft 13 kts 262°
2026-04-10 13:04 41.25606 69.25930 1381 ft 13 kts 261°
2026-04-10 13:04 41.25594 69.25840 1385 ft 9 kts 252°
2026-04-10 13:04 41.25549 69.25801 1382 ft 8 kts 189°
2026-04-10 13:04 41.25496 69.25804 1383 ft 7 kts 173°
2026-04-10 13:05 41.25445 69.25813 1383 ft 7 kts 172°
2026-04-10 13:05 41.25415 69.25863 1382 ft 7 kts 104°
2026-04-10 13:05 41.25414 69.25921 1384 ft 6 kts 83°
2026-04-10 13:05 41.25419 69.25969 1380 ft 5 kts 82°
2026-04-10 13:06 41.25420 69.25979 1379 ft 0 kts 82°
2026-04-10 13:06 41.25429 69.26063 1380 ft 30 kts 82°
2026-04-10 13:06 41.25488 69.26592 1385 ft 90 kts 81°
2026-04-10 13:06 41.25612 69.27703 1382 ft 151 kts 82°
2026-04-10 13:07 41.25776 69.29273 1640 ft 181 kts 81°
2026-04-10 13:07 41.25878 69.30917 2447 ft 177 kts 80°
2026-04-10 13:07 41.26062 69.32558 3142 ft 183 kts 77°
2026-04-10 13:07 41.26271 69.34249 3576 ft 188 kts 77°
2026-04-10 13:08 41.26474 69.35934 4128 ft 188 kts 78°
2026-04-10 13:08 41.26681 69.37684 4550 ft 195 kts 78°
2026-04-10 13:08 41.26897 69.39548 4767 ft 214 kts 78°
2026-04-10 13:09 41.27383 69.43861 5115 ft 257 kts 80°
2026-04-10 13:09 41.27644 69.46244 5625 ft 264 kts 79°
2026-04-10 13:09 41.27908 69.48683 6229 ft 269 kts 80°
2026-04-10 13:09 41.28176 69.51158 6821 ft 274 kts 80°
2026-04-10 13:10 41.28448 69.53684 7434 ft 276 kts 81°
2026-04-10 13:10 41.28697 69.56197 8058 ft 278 kts 82°
2026-04-10 13:10 41.28928 69.58763 8666 ft 282 kts 82°
2026-04-10 13:10 41.28909 69.61366 9068 ft 287 kts 104°
2026-04-10 13:11 41.27968 69.63698 9640 ft 290 kts 134°
2026-04-10 13:11 41.26312 69.65210 10246 ft 290 kts 156°
2026-04-10 13:11 41.24411 69.66184 10721 ft 294 kts 160°
2026-04-10 13:11 41.22478 69.67130 11356 ft 297 kts 160°
2026-04-10 13:12 41.20530 69.68093 12014 ft 301 kts 160°
2026-04-10 13:12 41.18565 69.69076 12802 ft 303 kts 160°
2026-04-10 13:12 41.16577 69.70078 13633 ft 304 kts 158°
2026-04-10 13:12 41.14779 69.71567 14196 ft 312 kts 133°
2026-04-10 13:13 41.13662 69.74014 14971 ft 313 kts 108°
2026-04-10 13:13 41.13273 69.76868 15523 ft 322 kts 96°
2026-04-10 13:13 41.13082 69.79884 15883 ft 338 kts 94°
2026-04-10 13:13 41.12891 69.83017 16595 ft 344 kts 95°
2026-04-10 13:14 41.12676 69.86209 17284 ft 351 kts 95°
2026-04-10 13:14 41.12444 69.89454 18048 ft 356 kts 96°
2026-04-10 13:14 41.12203 69.92734 18802 ft 358 kts 96°
2026-04-10 13:14 41.11958 69.96033 19501 ft 361 kts 96°
2026-04-10 13:15 41.11710 69.99366 20162 ft 365 kts 96°
2026-04-10 13:15 41.11459 70.02726 20823 ft 368 kts 96°
2026-04-10 13:15 41.11203 70.06137 21299 ft 379 kts 96°
2026-04-10 13:15 41.10930 70.09703 21548 ft 394 kts 96°
2026-04-10 13:16 41.10646 70.13365 22047 ft 404 kts 96°
2026-04-10 13:16 41.10356 70.17093 22679 ft 409 kts 96°
2026-04-10 13:16 41.10064 70.20864 23432 ft 410 kts 95°
2026-04-10 13:16 41.10192 70.24647 23883 ft 417 kts 77°
2026-04-10 13:17 41.10824 70.27050 24171 ft 420 kts 63°
2026-04-10 13:17 41.12713 70.31606 24805 ft 425 kts 60°
2026-04-10 13:17 41.13671 70.33882 25160 ft 428 kts 61°
2026-04-10 13:17 41.15123 70.37354 25747 ft 432 kts 61°
2026-04-10 13:18 41.16578 70.40866 26312 ft 435 kts 61°
2026-04-10 13:18 41.18036 70.44413 26820 ft 440 kts 62°
2026-04-10 13:18 41.19503 70.48008 27304 ft 445 kts 62°
2026-04-10 13:18 41.20976 70.51634 27800 ft 449 kts 62°
2026-04-10 13:19 41.22465 70.55311 28291 ft 453 kts 62°
2026-04-10 13:19 41.23963 70.59017 28728 ft 457 kts 62°
2026-04-10 13:19 41.25476 70.62765 29179 ft 461 kts 62°
2026-04-10 13:19 41.27000 70.66541 29604 ft 465 kts 62°
2026-04-10 13:20 41.28535 70.70351 30017 ft 469 kts 62°
2026-04-10 13:20 41.30081 70.74190 30398 ft 473 kts 62°
2026-04-10 13:20 41.31636 70.78058 30720 ft 476 kts 62°
2026-04-10 13:20 41.33199 70.81953 31057 ft 479 kts 62°
2026-04-10 13:21 41.34772 70.85877 31390 ft 481 kts 62°
2026-04-10 13:21 41.36351 70.89819 31712 ft 484 kts 62°
2026-04-10 13:21 41.37943 70.93796 32012 ft 487 kts 62°
2026-04-10 13:21 41.39536 70.97788 32301 ft 490 kts 62°
2026-04-10 13:22 41.41140 71.01822 32576 ft 493 kts 62°
2026-04-10 13:22 41.42742 71.05866 32836 ft 495 kts 61°
2026-04-10 13:22 41.44353 71.09936 33097 ft 498 kts 61°
2026-04-10 13:22 41.45969 71.14022 33334 ft 501 kts 61°
2026-04-10 13:23 41.47597 71.18144 33568 ft 503 kts 61°
2026-04-10 13:23 41.49231 71.22296 33835 ft 505 kts 62°
2026-04-10 13:23 41.50799 71.26427 34095 ft 506 kts 62°
2026-04-10 13:23 41.52350 71.30639 34392 ft 506 kts 63°
2026-04-10 13:24 41.53888 71.34865 34680 ft 505 kts 63°
2026-04-10 13:24 41.55427 71.39097 34946 ft 505 kts 63°
2026-04-10 13:24 41.56961 71.43302 35226 ft 505 kts 63°
2026-04-10 13:24 41.58504 71.47520 35500 ft 505 kts 63°
2026-04-10 13:25 41.60052 71.51744 35796 ft 505 kts 63°
2026-04-10 13:25 41.61591 71.55945 36073 ft 504 kts 63°
2026-04-10 13:25 41.63133 71.60159 36320 ft 505 kts 63°
2026-04-10 13:25 41.64676 71.64382 36592 ft 504 kts 63°
2026-04-10 13:26 41.66213 71.68599 36875 ft 504 kts 63°
2026-04-10 13:26 41.67750 71.72821 37072 ft 505 kts 63°
2026-04-10 13:26 41.70818 71.81263 37158 ft 508 kts 63°
2026-04-10 13:27 41.74007 71.89717 37194 ft 504 kts 61°
2026-04-10 13:27 41.75654 71.93867 37413 ft 505 kts 61°
2026-04-10 13:27 41.77303 71.97995 37751 ft 502 kts 61°
2026-04-10 13:28 41.78921 72.02061 38115 ft 500 kts 61°
2026-04-10 13:28 41.80547 72.06176 38425 ft 499 kts 61°
2026-04-10 13:28 41.82160 72.10287 38688 ft 499 kts 61°
2026-04-10 13:28 41.83773 72.14414 38906 ft 499 kts 61°
2026-04-10 13:29 41.85379 72.18541 39083 ft 499 kts 61°
2026-04-10 13:29 41.86989 72.22684 39122 ft 502 kts 61°
2026-04-10 13:29 41.90208 72.30988 39180 ft 499 kts 62°
2026-04-10 13:30 41.93402 72.39249 39184 ft 497 kts 61°
2026-04-10 13:30 41.96583 72.47496 39184 ft 496 kts 62°
2026-04-10 13:31 41.99747 72.55722 39191 ft 496 kts 62°
2026-04-10 13:31 42.02893 72.63921 39195 ft 496 kts 62°
2026-04-10 13:32 42.06057 72.72191 39185 ft 497 kts 62°
2026-04-10 13:32 42.09217 72.80481 39185 ft 498 kts 62°
2026-04-10 13:33 42.12378 72.88795 39188 ft 499 kts 62°
2026-04-10 13:33 42.15522 72.97085 39201 ft 500 kts 62°
2026-04-10 13:34 42.18685 73.05452 39210 ft 501 kts 62°
2026-04-10 13:34 42.21848 73.13843 39210 ft 501 kts 62°
2026-04-10 13:35 42.24991 73.22215 39226 ft 500 kts 62°
2026-04-10 13:35 42.28114 73.30558 39226 ft 500 kts 62°
2026-04-10 13:36 42.31243 73.38942 39236 ft 499 kts 62°
2026-04-10 13:36 42.34365 73.47331 39234 ft 498 kts 62°
2026-04-10 13:37 42.37472 73.55692 39236 ft 497 kts 61°
2026-04-10 13:37 42.41232 73.63510 39249 ft 496 kts 50°
2026-04-10 13:38 42.45910 73.70351 39240 ft 495 kts 43°
2026-04-10 13:38 42.50868 73.76829 39228 ft 495 kts 42°
2026-04-10 13:39 42.55791 73.83294 39234 ft 496 kts 43°
2026-04-10 13:39 42.60722 73.89860 39227 ft 497 kts 43°
2026-04-10 13:40 42.65640 73.96456 39219 ft 497 kts 43°
2026-04-10 13:40 42.70566 74.03077 39205 ft 497 kts 43°
2026-04-10 13:41 42.75484 74.09699 39199 ft 497 kts 43°
2026-04-10 13:41 42.80387 74.16317 39187 ft 496 kts 43°
2026-04-10 13:42 42.85287 74.22945 39185 ft 495 kts 43°
2026-04-10 13:42 42.90135 74.29517 39184 ft 495 kts 43°
2026-04-10 13:43 42.95011 74.36145 39185 ft 494 kts 43°
2026-04-10 13:43 42.99886 74.42787 39181 ft 494 kts 43°
2026-04-10 13:44 43.04750 74.49428 39185 ft 494 kts 43°
2026-04-10 13:44 43.09240 74.56574 39171 ft 496 kts 52°
2026-04-10 13:45 43.13190 74.64266 39188 ft 496 kts 54°
2026-04-10 13:45 43.17083 74.72085 39181 ft 497 kts 54°
2026-04-10 13:46 43.21007 74.79900 39179 ft 498 kts 54°
2026-04-10 13:46 43.24945 74.87698 39185 ft 498 kts 54°
2026-04-10 13:47 43.28887 74.95518 39175 ft 498 kts 54°
2026-04-10 13:47 43.32825 75.03358 39191 ft 498 kts 54°
2026-04-10 13:48 43.36763 75.11192 39198 ft 498 kts 53°
2026-04-10 13:48 43.41212 75.18457 39178 ft 496 kts 46°
2026-04-10 13:49 43.45842 75.25499 39193 ft 496 kts 46°
2026-04-10 13:49 43.50439 75.32584 39197 ft 496 kts 47°
2026-04-10 13:50 43.55040 75.39711 39195 ft 496 kts 47°
2026-04-10 13:50 43.59625 75.46820 39184 ft 496 kts 47°
2026-04-10 13:51 43.61638 75.50680 39178 ft 497 kts 62°
2026-04-10 13:51 43.62909 75.55101 39195 ft 497 kts 75°
2026-04-10 13:51 43.63455 75.59755 39176 ft 497 kts 89°
2026-04-10 13:51 43.63309 75.64513 39201 ft 495 kts 95°
2026-04-10 13:52 43.62770 75.74019 39190 ft 498 kts 95°
2026-04-10 13:52 43.62274 75.83571 39187 ft 500 kts 94°
2026-04-10 13:53 43.61835 75.93192 39186 ft 502 kts 94°
2026-04-10 13:53 43.61407 76.02772 39171 ft 503 kts 94°
2026-04-10 13:54 43.60962 76.12427 39178 ft 504 kts 94°
2026-04-10 13:54 43.60506 76.22082 39173 ft 504 kts 94°
2026-04-10 13:55 43.60046 76.31727 39183 ft 503 kts 94°
2026-04-10 13:55 43.59909 76.41372 39183 ft 502 kts 90°
2026-04-10 13:56 43.59925 76.51007 39181 ft 501 kts 90°
2026-04-10 13:56 43.59911 76.60619 39174 ft 501 kts 91°
2026-04-10 13:57 43.59863 76.70221 39176 ft 501 kts 91°
2026-04-10 13:57 43.59807 76.79832 39180 ft 501 kts 91°
2026-04-10 13:58 43.59700 76.89391 39178 ft 501 kts 92°
2026-04-10 13:58 43.59563 76.99013 39178 ft 501 kts 91°
2026-04-10 13:59 43.59474 77.08631 39176 ft 502 kts 91°
2026-04-10 13:59 43.59362 77.18256 39183 ft 502 kts 92°
2026-04-10 14:00 43.59105 77.26257 39176 ft 502 kts 94°
2026-04-10 14:00 43.58733 77.35865 39180 ft 502 kts 94°
2026-04-10 14:01 43.58390 77.45481 39190 ft 501 kts 94°
2026-04-10 14:01 43.58086 77.55093 39185 ft 501 kts 92°
2026-04-10 14:02 43.57977 77.64697 39188 ft 501 kts 91°
2026-04-10 14:02 43.57890 77.74311 39192 ft 500 kts 91°
2026-04-10 14:03 43.57762 77.83904 39188 ft 500 kts 92°
2026-04-10 14:03 43.57614 77.93434 39191 ft 499 kts 92°
2026-04-10 14:04 43.57460 78.03001 39191 ft 499 kts 92°
2026-04-10 14:05 43.57220 78.17366 39193 ft 499 kts 92°
2026-04-10 14:05 43.57055 78.26937 39190 ft 499 kts 92°
2026-04-10 14:06 43.56883 78.36445 39189 ft 499 kts 92°
2026-04-10 14:06 43.56702 78.46000 39191 ft 498 kts 92°
2026-04-10 14:07 43.56513 78.55555 39190 ft 498 kts 92°
2026-04-10 14:07 43.56316 78.65106 39189 ft 498 kts 92°
2026-04-10 14:08 43.56111 78.74658 39185 ft 498 kts 92°
2026-04-10 14:08 43.55898 78.84214 39190 ft 498 kts 92°
2026-04-10 14:09 43.55678 78.93754 39184 ft 498 kts 93°
2026-04-10 14:09 43.55450 79.03247 39181 ft 498 kts 93°
2026-04-10 14:10 43.55214 79.12787 39180 ft 498 kts 93°
2026-04-10 14:10 43.54971 79.22333 39181 ft 498 kts 93°
2026-04-10 14:11 43.54717 79.31878 39179 ft 498 kts 93°
2026-04-10 14:11 43.54455 79.41425 39180 ft 498 kts 93°
2026-04-10 14:12 43.54186 79.50984 39181 ft 499 kts 93°
2026-04-10 14:12 43.53909 79.60550 39183 ft 499 kts 93°
2026-04-10 14:13 43.53624 79.70115 39182 ft 500 kts 93°
2026-04-10 14:13 43.53334 79.79640 39189 ft 500 kts 94°
2026-04-10 14:14 43.53029 79.89219 39188 ft 501 kts 94°
2026-04-10 14:14 43.52712 79.98818 39195 ft 501 kts 94°
2026-04-10 14:15 43.52389 80.08430 39198 ft 502 kts 94°
2026-04-10 14:15 43.52058 80.18037 39201 ft 502 kts 94°
2026-04-10 14:16 43.51719 80.27648 39206 ft 502 kts 94°
2026-04-10 14:16 43.51372 80.37267 39206 ft 503 kts 94°
2026-04-10 14:17 43.51016 80.46889 39211 ft 503 kts 94°
2026-04-10 14:17 43.50655 80.56467 39215 ft 504 kts 94°
2026-04-10 14:18 43.50283 80.66110 39214 ft 504 kts 94°
2026-04-10 14:18 43.49915 80.75758 39213 ft 504 kts 93°
2026-04-10 14:19 43.49753 80.85428 39213 ft 505 kts 91°
2026-04-10 14:19 43.49661 80.95115 39221 ft 505 kts 92°
2026-04-10 14:20 43.49534 81.04729 39218 ft 505 kts 92°
2026-04-10 14:20 43.49374 81.14391 39218 ft 505 kts 92°
2026-04-10 14:21 43.49201 81.24068 39222 ft 505 kts 92°
2026-04-10 14:21 43.49022 81.33748 39223 ft 505 kts 92°
2026-04-10 14:22 43.48836 81.43431 39224 ft 504 kts 92°
2026-04-10 14:22 43.48642 81.53099 39216 ft 504 kts 92°
2026-04-10 14:23 43.48444 81.62664 39220 ft 503 kts 92°
2026-04-10 14:23 43.48234 81.72296 39220 ft 502 kts 92°
2026-04-10 14:24 43.48007 81.81904 39218 ft 502 kts 93°
2026-04-10 14:24 43.47769 81.91507 39215 ft 501 kts 93°
2026-04-10 14:25 43.47526 82.01099 39218 ft 501 kts 93°
2026-04-10 14:25 43.47275 82.10693 39216 ft 501 kts 93°
2026-04-10 14:26 43.47017 82.20281 39215 ft 502 kts 93°
2026-04-10 14:26 43.46750 82.29888 39217 ft 502 kts 93°
2026-04-10 14:27 43.46477 82.39451 39214 ft 502 kts 93°
2026-04-10 14:27 43.46194 82.49063 39217 ft 503 kts 93°
2026-04-10 14:28 43.45902 82.58686 39214 ft 503 kts 93°
2026-04-10 14:28 43.45602 82.68306 39217 ft 503 kts 93°
2026-04-10 14:29 43.45295 82.77932 39213 ft 503 kts 93°
2026-04-10 14:29 43.44981 82.87500 39214 ft 503 kts 93°
2026-04-10 14:30 43.44657 82.97138 39217 ft 503 kts 94°
2026-04-10 14:30 43.44325 83.06751 39218 ft 503 kts 94°
2026-04-10 14:31 43.43985 83.16365 39219 ft 503 kts 94°
2026-04-10 14:31 43.43641 83.25910 39216 ft 503 kts 94°
2026-04-10 14:32 43.43286 83.35527 39213 ft 502 kts 94°
2026-04-10 14:32 43.42668 83.45089 39209 ft 502 kts 97°
2026-04-10 14:33 43.41831 83.54639 39209 ft 502 kts 98°
2026-04-10 14:33 43.40987 83.64194 39205 ft 503 kts 98°
2026-04-10 14:34 43.40166 83.73693 39198 ft 504 kts 98°
2026-04-10 14:34 43.39343 83.83259 39197 ft 504 kts 98°
2026-04-10 14:35 43.38509 83.92842 39191 ft 505 kts 98°
2026-04-10 14:35 43.37666 84.02426 39186 ft 505 kts 98°
2026-04-10 14:36 43.36813 84.12013 39179 ft 505 kts 98°
2026-04-10 14:36 43.35957 84.21556 39179 ft 505 kts 98°
2026-04-10 14:37 43.35089 84.31140 39162 ft 505 kts 98°
2026-04-10 14:37 43.34209 84.40723 39168 ft 505 kts 99°
2026-04-10 14:38 43.33299 84.50288 39169 ft 505 kts 99°
2026-04-10 14:38 43.32377 84.59861 39157 ft 505 kts 99°
2026-04-10 14:39 43.31455 84.69390 39155 ft 506 kts 99°
2026-04-10 14:39 43.30521 84.78976 39145 ft 507 kts 99°
2026-04-10 14:40 43.29578 84.88566 39138 ft 507 kts 99°
2026-04-10 14:40 43.28627 84.98161 39119 ft 507 kts 99°
2026-04-10 14:41 43.27668 85.07760 39123 ft 506 kts 99°
2026-04-10 14:41 43.26703 85.17328 39108 ft 506 kts 99°
2026-04-10 14:42 43.25729 85.26892 39119 ft 505 kts 99°
2026-04-10 14:42 43.24755 85.36373 39114 ft 505 kts 99°
2026-04-10 14:43 43.23768 85.45919 39121 ft 505 kts 99°
2026-04-10 14:43 43.22774 85.55457 39117 ft 504 kts 99°
2026-04-10 14:44 43.21772 85.64970 39123 ft 504 kts 99°
2026-04-10 14:44 43.20763 85.74487 39130 ft 504 kts 99°
2026-04-10 14:45 43.19918 85.82406 39123 ft 506 kts 99°
2026-04-10 14:45 43.19010 85.91956 39121 ft 506 kts 91°
2026-04-10 14:45 43.19324 85.96760 39120 ft 506 kts 77°
2026-04-10 14:46 43.20341 86.01362 39136 ft 506 kts 65°
2026-04-10 14:46 43.22031 86.05597 39140 ft 503 kts 53°
2026-04-10 14:46 43.24041 86.09521 39139 ft 505 kts 52°
2026-04-10 14:47 43.28063 86.17398 39149 ft 508 kts 54°
2026-04-10 14:47 43.31980 86.25484 39177 ft 509 kts 54°
2026-04-10 14:48 43.35889 86.33574 39188 ft 505 kts 54°
2026-04-10 14:48 43.39770 86.41597 39200 ft 504 kts 54°
2026-04-10 14:49 43.43657 86.49636 39192 ft 504 kts 54°
2026-04-10 14:49 43.47565 86.57675 39202 ft 505 kts 54°
2026-04-10 14:50 43.51460 86.65714 39201 ft 504 kts 54°
2026-04-10 14:50 43.55346 86.73771 39203 ft 504 kts 54°
2026-04-10 14:51 43.59170 86.81806 39200 ft 504 kts 54°
2026-04-10 14:51 43.63012 86.89926 39200 ft 504 kts 54°
2026-04-10 14:52 43.66845 86.98034 39187 ft 504 kts 54°
2026-04-10 14:52 43.70676 87.06156 39182 ft 504 kts 54°
2026-04-10 14:53 43.74502 87.14291 39174 ft 504 kts 54°
2026-04-10 14:53 43.78287 87.22402 39175 ft 504 kts 55°
2026-04-10 14:54 43.82084 87.30571 39187 ft 504 kts 55°
2026-04-10 14:54 43.85879 87.38753 39185 ft 505 kts 55°
2026-04-10 14:55 43.89674 87.46956 39185 ft 505 kts 55°
2026-04-10 14:55 43.93644 87.54973 39185 ft 503 kts 50°
2026-04-10 14:56 43.97907 87.62682 39182 ft 503 kts 50°
2026-04-10 14:56 44.02172 87.70397 39167 ft 503 kts 50°
2026-04-10 14:57 44.06402 87.78162 39152 ft 504 kts 50°
2026-04-10 14:57 44.10594 87.85898 39132 ft 504 kts 50°
2026-04-10 14:58 44.14171 87.94229 39126 ft 507 kts 73°
2026-04-10 14:58 44.14707 87.99085 39127 ft 509 kts 91°
2026-04-10 14:58 44.14328 88.03965 39139 ft 508 kts 105°
2026-04-10 14:58 44.13156 88.08570 39119 ft 504 kts 121°
2026-04-10 14:59 44.11385 88.12746 39146 ft 501 kts 124°
2026-04-10 14:59 44.07681 88.21016 39137 ft 505 kts 124°
2026-04-10 15:00 44.03990 88.29363 39141 ft 508 kts 124°
2026-04-10 15:00 44.00361 88.37742 39139 ft 510 kts 123°
2026-04-10 15:01 43.96718 88.46195 39128 ft 510 kts 123°
2026-04-10 15:01 43.93070 88.54634 39130 ft 508 kts 123°
2026-04-10 15:02 43.89436 88.63002 39125 ft 506 kts 123°
2026-04-10 15:02 43.85798 88.71350 39117 ft 504 kts 124°
2026-04-10 15:03 43.82170 88.79652 39119 ft 502 kts 124°
2026-04-10 15:03 43.78568 88.87870 39126 ft 502 kts 124°
2026-04-10 15:04 43.74938 88.96129 39122 ft 501 kts 124°
2026-04-10 15:04 43.71307 89.04367 39114 ft 501 kts 124°
2026-04-10 15:05 43.65843 89.16719 39110 ft 502 kts 124°
2026-04-10 15:05 43.62216 89.24892 39114 ft 502 kts 124°
2026-04-10 15:06 43.58554 89.33126 39122 ft 503 kts 124°
2026-04-10 15:06 43.54885 89.41360 39086 ft 504 kts 124°
2026-04-10 15:07 43.51263 89.49640 39075 ft 505 kts 123°
2026-04-10 15:07 43.47660 89.57920 39117 ft 503 kts 123°
2026-04-10 15:08 43.44053 89.66167 39161 ft 502 kts 123°
2026-04-10 15:08 43.40428 89.74413 39143 ft 502 kts 124°
2026-04-10 15:09 43.36805 89.82630 39136 ft 503 kts 123°
2026-04-10 15:09 43.33197 89.90790 39128 ft 502 kts 124°
2026-04-10 15:10 43.29560 89.98993 39099 ft 502 kts 124°
2026-04-10 15:10 43.25918 90.07186 39076 ft 502 kts 124°
2026-04-10 15:11 43.22277 90.15359 39036 ft 502 kts 124°
2026-04-10 15:11 43.18621 90.23543 39010 ft 503 kts 124°
2026-04-10 15:12 43.14968 90.31713 39007 ft 503 kts 124°
2026-04-10 15:12 43.11309 90.39878 38979 ft 504 kts 124°
2026-04-10 15:13 43.07635 90.48054 38963 ft 504 kts 124°
2026-04-10 15:13 43.03959 90.56210 38947 ft 504 kts 124°
2026-04-10 15:14 43.00273 90.64369 38944 ft 504 kts 124°
2026-04-10 15:14 42.96587 90.72502 38936 ft 504 kts 124°
2026-04-10 15:15 42.92893 90.80637 38927 ft 504 kts 124°
2026-04-10 15:15 42.89064 90.88569 38923 ft 502 kts 130°
2026-04-10 15:16 42.84374 90.95530 38921 ft 497 kts 140°
2026-04-10 15:16 42.79341 91.02000 38917 ft 497 kts 140°
2026-04-10 15:17 42.74312 91.08476 38930 ft 497 kts 140°
2026-04-10 15:17 42.69303 91.14980 38930 ft 498 kts 139°
2026-04-10 15:18 42.64302 91.21485 38936 ft 498 kts 139°
2026-04-10 15:18 42.59295 91.27982 38946 ft 497 kts 139°
2026-04-10 15:19 42.54289 91.34459 38948 ft 497 kts 139°
2026-04-10 15:19 42.49310 91.40884 38954 ft 496 kts 139°
2026-04-10 15:20 42.44304 91.47329 38956 ft 496 kts 140°
2026-04-10 15:20 42.39294 91.53765 38962 ft 495 kts 140°
2026-04-10 15:21 42.34290 91.60180 38962 ft 495 kts 140°
2026-04-10 15:21 42.29295 91.66568 38963 ft 494 kts 140°
2026-04-10 15:22 42.24331 91.72905 38970 ft 494 kts 139°
2026-04-10 15:22 42.19712 91.79814 38970 ft 497 kts 132°
2026-04-10 15:23 42.15367 91.87075 38965 ft 498 kts 131°
2026-04-10 15:23 42.11010 91.94348 38966 ft 498 kts 132°
2026-04-10 15:24 42.06629 92.01578 38962 ft 499 kts 132°
2026-04-10 15:24 42.02220 92.08803 38963 ft 499 kts 132°
2026-04-10 15:25 41.97836 92.15964 38959 ft 499 kts 133°
2026-04-10 15:25 41.93420 92.23164 38958 ft 499 kts 133°
2026-04-10 15:26 41.88998 92.30360 38953 ft 499 kts 133°
2026-04-10 15:26 41.84571 92.37548 38957 ft 499 kts 133°
2026-04-10 15:27 41.80147 92.44712 38949 ft 499 kts 133°
2026-04-10 15:27 41.75718 92.51867 38949 ft 499 kts 133°
2026-04-10 15:28 41.72034 92.57805 38950 ft 498 kts 133°
2026-04-10 15:28 41.67598 92.64941 38948 ft 498 kts 133°
2026-04-10 15:29 41.63158 92.72066 38957 ft 498 kts 133°
2026-04-10 15:29 41.58717 92.79176 38949 ft 498 kts 133°
2026-04-10 15:30 41.54268 92.86281 38954 ft 498 kts 133°
2026-04-10 15:30 41.49819 92.93370 38952 ft 498 kts 133°
2026-04-10 15:31 41.45367 93.00448 38947 ft 498 kts 133°
2026-04-10 15:31 41.40936 93.07475 38942 ft 498 kts 133°
2026-04-10 15:32 41.36480 93.14525 38940 ft 498 kts 133°
2026-04-10 15:32 41.32021 93.21564 38941 ft 497 kts 133°
2026-04-10 15:33 41.27554 93.28599 38938 ft 497 kts 133°
2026-04-10 15:33 41.23088 93.35617 38933 ft 497 kts 133°
2026-04-10 15:34 41.18616 93.42628 38931 ft 496 kts 134°
2026-04-10 15:34 41.14153 93.49608 38927 ft 496 kts 134°
2026-04-10 15:35 41.09685 93.56581 38930 ft 495 kts 134°
2026-04-10 15:35 41.05243 93.63496 38928 ft 494 kts 134°
2026-04-10 15:36 41.00780 93.70429 38930 ft 494 kts 134°
2026-04-10 15:36 40.96320 93.77344 38930 ft 493 kts 134°
2026-04-10 15:37 40.91855 93.84243 38921 ft 493 kts 135°
2026-04-10 15:37 40.87147 93.90786 38917 ft 491 kts 138°
2026-04-10 15:38 40.82358 93.97150 38919 ft 491 kts 139°
2026-04-10 15:38 40.77553 94.03540 38901 ft 491 kts 138°
2026-04-10 15:39 40.72740 94.09969 38904 ft 491 kts 138°
2026-04-10 15:39 40.67936 94.16389 38895 ft 491 kts 138°
2026-04-10 15:40 40.63131 94.22797 38885 ft 492 kts 138°
2026-04-10 15:40 40.58318 94.29198 38879 ft 492 kts 138°
2026-04-10 15:41 40.53499 94.35593 38875 ft 492 kts 138°
2026-04-10 15:41 40.48679 94.41975 38872 ft 492 kts 138°
2026-04-10 15:42 40.43854 94.48350 38875 ft 492 kts 139°
2026-04-10 15:42 40.39057 94.54674 38870 ft 491 kts 139°
2026-04-10 15:43 40.34229 94.61026 38873 ft 491 kts 139°
2026-04-10 15:43 40.29401 94.67364 38881 ft 491 kts 139°
2026-04-10 15:44 40.24571 94.73691 38876 ft 490 kts 139°
2026-04-10 15:44 40.19772 94.79967 38881 ft 490 kts 139°
2026-04-10 15:45 40.14896 94.86183 38886 ft 488 kts 142°
2026-04-10 15:45 40.09777 94.92016 38894 ft 487 kts 143°
2026-04-10 15:46 40.04650 94.97807 38901 ft 488 kts 143°
2026-04-10 15:46 39.99537 95.03646 38904 ft 488 kts 141°
2026-04-10 15:47 39.95068 95.10388 38923 ft 495 kts 128°
2026-04-10 15:47 39.91671 95.18227 38937 ft 499 kts 119°
2026-04-10 15:48 39.88679 95.26323 38945 ft 499 kts 118°
2026-04-10 15:48 39.85653 95.34466 38962 ft 499 kts 119°
2026-04-10 15:49 39.82584 95.42564 38971 ft 499 kts 119°
2026-04-10 15:49 39.79490 95.50648 38979 ft 499 kts 119°
2026-04-10 15:50 39.76396 95.58714 38995 ft 499 kts 119°
2026-04-10 15:50 39.73295 95.66785 38996 ft 499 kts 120°
2026-04-10 15:51 39.70185 95.74862 39007 ft 499 kts 119°
2026-04-10 15:51 39.67094 95.82865 39013 ft 498 kts 120°
2026-04-10 15:52 39.63979 95.90910 39020 ft 498 kts 120°
2026-04-10 15:52 39.60861 95.98942 39030 ft 498 kts 120°
2026-04-10 15:53 39.57737 96.06971 39045 ft 498 kts 120°
2026-04-10 15:53 39.54613 96.14952 39043 ft 499 kts 120°
2026-04-10 15:54 39.51452 96.22941 39048 ft 499 kts 120°
2026-04-10 15:54 39.48278 96.30942 39063 ft 499 kts 120°
2026-04-10 15:55 39.45099 96.38947 39063 ft 500 kts 120°
2026-04-10 15:55 39.41913 96.46951 39070 ft 500 kts 120°
2026-04-10 15:56 39.38724 96.54944 39064 ft 499 kts 120°
2026-04-10 15:56 39.35535 96.62913 39071 ft 499 kts 120°
2026-04-10 15:57 39.32367 96.70813 39059 ft 498 kts 120°
2026-04-10 15:57 39.29178 96.78745 39050 ft 497 kts 120°
2026-04-10 15:58 39.25995 96.86653 39051 ft 496 kts 120°
2026-04-10 15:58 39.22850 96.94588 39028 ft 496 kts 120°
2026-04-10 15:59 39.19718 97.02519 39040 ft 496 kts 120°
2026-04-10 15:59 39.16579 97.10431 39038 ft 496 kts 120°
2026-04-10 16:00 39.13427 97.18340 39036 ft 496 kts 120°
2026-04-10 16:00 39.10271 97.26240 39035 ft 496 kts 120°
2026-04-10 16:01 39.07135 97.34070 39052 ft 495 kts 120°
2026-04-10 16:01 39.03972 97.41943 39041 ft 495 kts 121°
2026-04-10 16:02 39.00808 97.49805 39039 ft 495 kts 121°
2026-04-10 16:02 38.97636 97.57663 39029 ft 495 kts 121°
2026-04-10 16:03 38.94456 97.65523 39027 ft 494 kts 121°
2026-04-10 16:03 38.91278 97.73351 39015 ft 494 kts 121°
2026-04-10 16:04 38.88092 97.81175 39014 ft 495 kts 121°
2026-04-10 16:04 38.84913 97.88959 39001 ft 495 kts 121°
2026-04-10 16:05 38.81712 97.96784 39004 ft 496 kts 121°
2026-04-10 16:05 38.78496 98.04628 39001 ft 497 kts 121°
2026-04-10 16:06 38.75271 98.12474 39007 ft 498 kts 121°
2026-04-10 16:06 38.72039 98.20312 38999 ft 498 kts 121°
2026-04-10 16:07 38.68797 98.28159 38988 ft 499 kts 121°
2026-04-10 16:07 38.65557 98.35980 39006 ft 499 kts 121°
2026-04-10 16:08 38.62289 98.43846 38999 ft 501 kts 121°
2026-04-10 16:08 38.59007 98.51730 38996 ft 502 kts 121°
2026-04-10 16:09 38.55718 98.59611 39000 ft 502 kts 121°
2026-04-10 16:09 38.52426 98.67475 39009 ft 502 kts 121°
2026-04-10 16:10 38.49144 98.75300 38996 ft 503 kts 121°
2026-04-10 16:10 38.45831 98.83179 39000 ft 504 kts 121°
2026-04-10 16:11 38.42503 98.91076 39014 ft 505 kts 121°
2026-04-10 16:11 38.39178 98.98940 39020 ft 507 kts 121°
2026-04-10 16:12 38.35826 99.06850 39017 ft 507 kts 121°
2026-04-10 16:13 38.30806 99.18659 39016 ft 508 kts 121°
2026-04-10 16:13 38.27437 99.26562 39026 ft 508 kts 121°
2026-04-10 16:14 38.24052 99.34481 39024 ft 509 kts 121°
2026-04-10 16:14 38.20664 99.42389 39020 ft 509 kts 121°
2026-04-10 16:15 38.17838 99.48968 39027 ft 509 kts 121°
2026-04-10 16:15 38.14437 99.56868 39025 ft 510 kts 121°
2026-04-10 16:16 38.11027 99.64768 39022 ft 510 kts 121°
2026-04-10 16:16 38.07609 99.72669 39025 ft 510 kts 121°
2026-04-10 16:17 38.04179 99.80578 39021 ft 510 kts 121°
2026-04-10 16:17 38.00753 99.88459 39023 ft 510 kts 121°
2026-04-10 16:18 37.97317 99.96342 39024 ft 510 kts 121°
2026-04-10 16:18 37.93876 100.04217 39026 ft 510 kts 121°
2026-04-10 16:19 37.90452 100.12036 39022 ft 510 kts 121°
2026-04-10 16:19 37.87002 100.19892 39024 ft 510 kts 121°
2026-04-10 16:20 37.83545 100.27748 39029 ft 510 kts 121°
2026-04-10 16:20 37.80081 100.35599 39027 ft 510 kts 121°
2026-04-10 16:21 37.76617 100.43431 39022 ft 510 kts 121°
2026-04-10 16:21 37.73170 100.51208 39027 ft 510 kts 121°
2026-04-10 16:22 37.69701 100.59015 39031 ft 509 kts 121°
2026-04-10 16:22 37.66226 100.66819 39041 ft 509 kts 121°
2026-04-10 16:23 37.62823 100.74682 39055 ft 510 kts 120°
2026-04-10 16:23 37.59521 100.82611 39054 ft 511 kts 120°
2026-04-10 16:24 37.56207 100.90542 39048 ft 512 kts 120°
2026-04-10 16:24 37.52861 100.98474 39054 ft 512 kts 120°
2026-04-10 16:25 37.49507 101.06382 39058 ft 511 kts 120°
2026-04-10 16:25 37.46149 101.14284 39059 ft 512 kts 120°
2026-04-10 16:26 37.42809 101.22123 39072 ft 512 kts 120°
2026-04-10 16:26 37.39433 101.30034 39055 ft 513 kts 120°
2026-04-10 16:27 37.36051 101.37938 39081 ft 513 kts 120°
2026-04-10 16:27 37.32660 101.45847 39048 ft 514 kts 120°
2026-04-10 16:28 37.29519 101.53929 39063 ft 515 kts 112°
2026-04-10 16:28 37.27400 101.62546 39052 ft 516 kts 106°
2026-04-10 16:29 37.25500 101.71229 39065 ft 516 kts 106°
2026-04-10 16:29 37.23542 101.79906 39062 ft 517 kts 107°
2026-04-10 16:30 37.21554 101.88534 39085 ft 519 kts 107°
2026-04-10 16:30 37.19541 101.97243 39082 ft 520 kts 107°
2026-04-10 16:31 37.17521 102.05959 39097 ft 520 kts 107°
2026-04-10 16:31 37.15481 102.14671 39082 ft 520 kts 107°
2026-04-10 16:32 37.13441 102.23360 39110 ft 520 kts 107°
2026-04-10 16:32 37.11043 102.31885 39119 ft 517 kts 116°
2026-04-10 16:33 37.07600 102.39686 39124 ft 515 kts 124°
2026-04-10 16:33 37.03736 102.47256 39120 ft 515 kts 125°
2026-04-10 16:34 36.99886 102.54847 39131 ft 517 kts 124°
2026-04-10 16:34 36.96052 102.62490 39115 ft 518 kts 124°
2026-04-10 16:35 36.92247 102.70080 39118 ft 519 kts 124°
2026-04-10 16:35 36.88405 102.77718 39128 ft 519 kts 124°
2026-04-10 16:36 36.84548 102.85366 39123 ft 520 kts 124°
2026-04-10 16:36 36.80787 102.93099 39117 ft 521 kts 119°
2026-04-10 16:37 36.77635 103.01202 39114 ft 522 kts 117°
2026-04-10 16:37 36.74525 103.09402 39104 ft 523 kts 117°
2026-04-10 16:38 36.71379 103.17569 39110 ft 523 kts 117°
2026-04-10 16:38 36.68200 103.25722 39110 ft 523 kts 117°
2026-04-10 16:39 36.65010 103.33874 39117 ft 523 kts 117°
2026-04-10 16:39 36.61814 103.42030 39117 ft 524 kts 117°
2026-04-10 16:40 36.58608 103.50197 39122 ft 525 kts 117°
2026-04-10 16:40 36.55395 103.58361 39112 ft 526 kts 117°
2026-04-10 16:41 36.51987 103.66391 39127 ft 524 kts 122°
2026-04-10 16:41 36.48311 103.74162 39125 ft 525 kts 123°
2026-04-10 16:42 36.44603 103.81982 39112 ft 526 kts 122°
2026-04-10 16:42 36.40918 103.89832 39098 ft 526 kts 122°
2026-04-10 16:43 36.37225 103.97691 39088 ft 526 kts 123°
2026-04-10 16:43 36.35108 104.01325 39071 ft 518 kts 138°
2026-04-10 16:43 36.32334 104.04085 39086 ft 508 kts 154°
2026-04-10 16:43 36.29167 104.05951 39084 ft 501 kts 167°
2026-04-10 16:44 36.25807 104.06882 39068 ft 489 kts 181°
2026-04-10 16:44 36.18996 104.07458 39076 ft 493 kts 182°
2026-04-10 16:45 36.12113 104.08119 39079 ft 498 kts 181°
2026-04-10 16:45 36.05201 104.08869 39070 ft 495 kts 181°
2026-04-10 16:46 35.98433 104.09619 39073 ft 490 kts 181°
2026-04-10 16:46 35.91621 104.10356 39082 ft 493 kts 181°
2026-04-10 16:47 35.84757 104.11097 39081 ft 494 kts 181°
2026-04-10 16:47 35.77953 104.11375 39097 ft 489 kts 187°
2026-04-10 16:48 35.71134 104.11294 39094 ft 489 kts 187°
2026-04-10 16:48 35.64317 104.11239 39078 ft 490 kts 186°
2026-04-10 16:49 35.57499 104.11221 39084 ft 490 kts 186°
2026-04-10 16:49 35.50683 104.11203 39084 ft 489 kts 186°
2026-04-10 16:50 35.43916 104.11193 39082 ft 489 kts 186°
2026-04-10 16:50 35.37203 104.11201 39063 ft 469 kts 185°
2026-04-10 16:51 35.30761 104.11210 39080 ft 462 kts 185°
2026-04-10 16:51 35.24278 104.11202 39086 ft 467 kts 185°
2026-04-10 16:52 35.17735 104.11197 39081 ft 471 kts 185°
2026-04-10 16:52 35.11161 104.11196 39080 ft 473 kts 185°
2026-04-10 16:53 35.04578 104.11198 39071 ft 472 kts 185°
2026-04-10 16:53 34.98059 104.11201 39073 ft 469 kts 186°
2026-04-10 16:54 34.91542 104.11200 39079 ft 466 kts 186°
2026-04-10 16:54 34.85059 104.11202 39082 ft 465 kts 186°
2026-04-10 16:55 34.78582 104.11203 39081 ft 466 kts 186°
2026-04-10 16:55 34.72095 104.11202 39078 ft 466 kts 186°
2026-04-10 16:56 34.65618 104.11200 39083 ft 465 kts 186°
2026-04-10 16:56 34.59180 104.11200 39075 ft 464 kts 186°
2026-04-10 16:57 34.52718 104.11201 39078 ft 464 kts 186°
2026-04-10 16:57 34.46263 104.11201 39084 ft 464 kts 187°
2026-04-10 16:58 34.39804 104.11200 39085 ft 464 kts 187°
2026-04-10 16:58 34.34427 104.11200 39075 ft 465 kts 187°
2026-04-10 16:59 34.27969 104.11200 39071 ft 464 kts 187°
2026-04-10 16:59 34.21495 104.11201 39070 ft 464 kts 187°
2026-04-10 17:00 34.15064 104.11202 39089 ft 464 kts 187°
2026-04-10 17:00 34.08594 104.11204 39077 ft 465 kts 187°
2026-04-10 17:01 34.02122 104.11199 39052 ft 463 kts 187°
2026-04-10 17:01 33.95690 104.11198 39071 ft 462 kts 187°
2026-04-10 17:02 33.89252 104.11201 39069 ft 463 kts 187°
2026-04-10 17:02 33.82801 104.11199 39070 ft 463 kts 187°
2026-04-10 17:03 33.76360 104.11201 39081 ft 464 kts 187°
2026-04-10 17:03 33.69906 104.11201 39085 ft 463 kts 188°
2026-04-10 17:04 33.63529 104.11237 39082 ft 462 kts 184°
2026-04-10 17:04 33.57116 104.12836 39094 ft 481 kts 169°
2026-04-10 17:04 33.54001 104.14417 39081 ft 493 kts 160°
2026-04-10 17:05 33.51006 104.16444 39084 ft 497 kts 158°
2026-04-10 17:05 33.45051 104.20696 39057 ft 499 kts 158°
2026-04-10 17:06 33.39042 104.24835 39079 ft 495 kts 159°
2026-04-10 17:06 33.32966 104.28667 39089 ft 491 kts 163°
2026-04-10 17:07 33.26717 104.31999 39081 ft 492 kts 165°
2026-04-10 17:07 33.20471 104.35280 39062 ft 490 kts 164°
2026-04-10 17:08 33.14241 104.38592 39073 ft 491 kts 165°
2026-04-10 17:08 33.08035 104.41911 39051 ft 491 kts 165°
2026-04-10 17:09 33.01793 104.45246 39060 ft 491 kts 165°
2026-04-10 17:09 32.95550 104.48576 39068 ft 492 kts 165°
2026-04-10 17:10 32.89274 104.51914 39058 ft 494 kts 164°
2026-04-10 17:10 32.82987 104.55253 39106 ft 495 kts 164°
2026-04-10 17:11 32.76546 104.58024 39065 ft 490 kts 175°
2026-04-10 17:11 32.69857 104.59216 39044 ft 481 kts 186°
2026-04-10 17:12 32.63224 104.59426 39038 ft 476 kts 187°
2026-04-10 17:12 32.56623 104.59675 39035 ft 479 kts 186°
2026-04-10 17:13 32.49948 104.59987 39029 ft 479 kts 186°
2026-04-10 17:13 32.43286 104.60287 39026 ft 477 kts 186°
2026-04-10 17:14 32.36657 104.60601 39021 ft 476 kts 186°
2026-04-10 17:14 32.30043 104.60969 39021 ft 475 kts 186°
2026-04-10 17:15 32.23434 104.61338 39024 ft 475 kts 186°
2026-04-10 17:15 32.16811 104.61701 39005 ft 476 kts 186°
2026-04-10 17:16 32.10195 104.62060 39002 ft 476 kts 186°
2026-04-10 17:16 32.03604 104.62417 39000 ft 477 kts 186°
2026-04-10 17:17 31.96961 104.62777 38985 ft 477 kts 186°
2026-04-10 17:17 31.90335 104.63135 38984 ft 476 kts 186°
2026-04-10 17:18 31.83714 104.63493 38980 ft 475 kts 186°
2026-04-10 17:18 31.77111 104.63846 38971 ft 474 kts 186°
2026-04-10 17:19 31.70566 104.64124 38971 ft 473 kts 187°
2026-04-10 17:19 31.63987 104.64369 38968 ft 473 kts 187°
2026-04-10 17:20 31.57413 104.64620 38965 ft 473 kts 187°
2026-04-10 17:20 31.50826 104.64880 38957 ft 474 kts 187°
2026-04-10 17:21 31.40938 104.65274 38956 ft 474 kts 187°
2026-04-10 17:21 31.34345 104.65535 38957 ft 474 kts 187°
2026-04-10 17:22 31.27750 104.65796 38956 ft 474 kts 187°
2026-04-10 17:22 31.21161 104.66056 38959 ft 474 kts 187°
2026-04-10 17:23 31.14564 104.66316 38956 ft 474 kts 187°
2026-04-10 17:23 31.07973 104.66575 38960 ft 474 kts 187°
2026-04-10 17:24 31.01363 104.67033 38956 ft 478 kts 183°
2026-04-10 17:24 30.94737 104.67837 38970 ft 479 kts 183°
2026-04-10 17:25 30.88147 104.68617 38959 ft 478 kts 183°
2026-04-10 17:25 30.82882 104.69213 38959 ft 478 kts 183°
2026-04-10 17:26 30.76266 104.69959 38964 ft 477 kts 184°
2026-04-10 17:26 30.69653 104.70705 38969 ft 477 kts 184°
2026-04-10 17:27 30.63041 104.71451 38970 ft 477 kts 184°
2026-04-10 17:27 30.56436 104.72196 38975 ft 477 kts 184°
2026-04-10 17:28 30.49824 104.72931 38973 ft 476 kts 184°
2026-04-10 17:28 30.43261 104.73654 38972 ft 476 kts 184°
2026-04-10 17:29 30.36670 104.74381 38972 ft 475 kts 184°
2026-04-10 17:29 30.30093 104.75106 38973 ft 475 kts 184°
2026-04-10 17:30 30.23514 104.75830 38972 ft 474 kts 184°
2026-04-10 17:30 30.17163 104.76528 38977 ft 474 kts 184°
2026-04-10 17:31 30.13248 104.76958 38979 ft 474 kts 184°
2026-04-10 17:31 30.06762 104.77676 38960 ft 461 kts 184°
2026-04-10 17:32 30.00384 104.78782 38967 ft 471 kts 176°
2026-04-10 17:32 29.94057 104.81190 38970 ft 486 kts 167°
2026-04-10 17:33 29.87817 104.84259 38971 ft 489 kts 166°
2026-04-10 17:33 29.81572 104.87345 38958 ft 488 kts 167°
2026-04-10 17:34 29.75322 104.90378 38952 ft 486 kts 167°
2026-04-10 17:34 29.69083 104.93379 38947 ft 485 kts 167°
2026-04-10 17:35 29.62895 104.96353 38950 ft 484 kts 167°
2026-04-10 17:35 29.56693 104.99332 38948 ft 483 kts 167°
2026-04-10 17:36 29.50480 105.02304 38955 ft 482 kts 168°
2026-04-10 17:36 29.44192 105.04822 38945 ft 477 kts 171°
2026-04-10 17:37 29.37881 105.07198 38936 ft 477 kts 171°
2026-04-10 17:37 29.31613 105.09593 38939 ft 478 kts 171°
2026-04-10 17:38 29.25300 105.12023 38931 ft 478 kts 171°
2026-04-10 17:38 29.20279 105.13937 38933 ft 478 kts 171°
2026-04-10 17:39 29.14591 105.16072 38936 ft 478 kts 171°
2026-04-10 17:39 29.08267 105.18449 38932 ft 478 kts 171°
2026-04-10 17:40 29.01943 105.20857 38922 ft 478 kts 171°
2026-04-10 17:40 28.95627 105.23273 38916 ft 478 kts 171°
2026-04-10 17:41 28.90386 105.25274 38918 ft 478 kts 171°
2026-04-10 17:41 28.84080 105.27675 38919 ft 477 kts 171°
2026-04-10 17:42 28.77768 105.30073 38925 ft 477 kts 171°
2026-04-10 17:42 28.71466 105.32464 38906 ft 477 kts 171°
2026-04-10 17:43 28.65170 105.34851 38923 ft 476 kts 171°
2026-04-10 17:43 28.58914 105.37220 38915 ft 476 kts 171°
2026-04-10 17:44 28.52618 105.39600 38917 ft 476 kts 171°
2026-04-10 17:44 28.46327 105.41976 38916 ft 476 kts 171°
2026-04-10 17:45 28.40027 105.44352 38930 ft 476 kts 171°
2026-04-10 17:45 28.33725 105.46726 38917 ft 476 kts 171°
2026-04-10 17:46 28.27483 105.49075 38920 ft 475 kts 171°
2026-04-10 17:46 28.21203 105.51436 38935 ft 475 kts 170°
2026-04-10 17:47 28.14927 105.53792 38931 ft 474 kts 170°
2026-04-10 17:47 28.08669 105.56137 38931 ft 473 kts 170°
2026-04-10 17:48 28.02408 105.57941 38937 ft 459 kts 180°
2026-04-10 17:48 27.96074 105.58837 38944 ft 458 kts 181°
2026-04-10 17:49 27.89757 105.59822 38943 ft 458 kts 180°
2026-04-10 17:49 27.83442 105.60921 38943 ft 463 kts 175°
2026-04-10 17:50 27.77219 105.63155 38950 ft 475 kts 166°
2026-04-10 17:50 27.71285 105.66572 38967 ft 484 kts 159°
2026-04-10 17:51 27.65372 105.70218 38938 ft 481 kts 161°
2026-04-10 17:51 27.59352 105.73460 38953 ft 478 kts 163°
2026-04-10 17:52 27.53315 105.76624 38954 ft 478 kts 163°
2026-04-10 17:52 27.47291 105.79837 38971 ft 479 kts 162°
2026-04-10 17:53 27.41267 105.83088 38963 ft 480 kts 162°
2026-04-10 17:53 27.35285 105.86316 38962 ft 479 kts 162°
2026-04-10 17:54 27.29275 105.89551 38958 ft 477 kts 162°
2026-04-10 17:54 27.23288 105.92768 38959 ft 476 kts 162°
2026-04-10 17:55 27.17311 105.95976 38973 ft 475 kts 162°
2026-04-10 17:55 27.11355 105.99169 38966 ft 474 kts 162°
2026-04-10 17:56 27.05541 106.02784 38955 ft 486 kts 150°
2026-04-10 17:56 27.00605 106.08043 38951 ft 502 kts 135°
2026-04-10 17:57 26.96382 106.14334 38960 ft 505 kts 133°
2026-04-10 17:57 26.92222 106.20695 38965 ft 505 kts 133°
2026-04-10 17:58 26.88013 106.27003 38957 ft 505 kts 134°
2026-04-10 17:58 26.83764 106.33282 38966 ft 505 kts 134°
2026-04-10 17:59 26.79513 106.39545 38974 ft 505 kts 134°
2026-04-10 17:59 26.75288 106.45765 38971 ft 505 kts 134°
2026-04-10 18:00 26.71029 106.52033 38963 ft 505 kts 134°
2026-04-10 18:00 26.66778 106.58283 38977 ft 504 kts 134°
2026-04-10 18:01 26.62527 106.64522 38985 ft 504 kts 134°
2026-04-10 18:01 26.58271 106.70761 38982 ft 504 kts 134°
2026-04-10 18:02 26.54017 106.76987 38982 ft 504 kts 134°
2026-04-10 18:02 26.49469 106.82785 38980 ft 495 kts 142°
2026-04-10 18:03 26.44531 106.88134 38971 ft 495 kts 142°
2026-04-10 18:03 26.39586 106.93500 38969 ft 495 kts 142°
2026-04-10 18:04 26.34675 106.98899 38968 ft 495 kts 142°
2026-04-10 18:04 26.29800 107.04259 38950 ft 495 kts 141°
2026-04-10 18:05 26.24882 107.09657 38933 ft 495 kts 141°
2026-04-10 18:05 26.19966 107.15051 38922 ft 496 kts 141°
2026-04-10 18:06 26.15050 107.20441 38909 ft 496 kts 141°
2026-04-10 18:06 26.10131 107.25827 38901 ft 496 kts 141°
2026-04-10 18:07 26.05215 107.31203 38893 ft 496 kts 141°
2026-04-10 18:07 26.00290 107.36583 38886 ft 496 kts 141°
2026-04-10 18:08 25.95355 107.41963 38888 ft 497 kts 141°
2026-04-10 18:08 25.90445 107.47314 38880 ft 497 kts 141°
2026-04-10 18:09 25.83031 107.55381 38879 ft 498 kts 141°
2026-04-10 18:10 25.78077 107.60762 38878 ft 498 kts 141°
2026-04-10 18:10 25.73112 107.66150 38864 ft 500 kts 141°
2026-04-10 18:11 25.68142 107.71557 38869 ft 500 kts 140°
2026-04-10 18:11 25.63183 107.76991 38861 ft 501 kts 140°
2026-04-10 18:12 25.58220 107.82424 38861 ft 501 kts 140°
2026-04-10 18:12 25.53250 107.87851 38851 ft 501 kts 140°
2026-04-10 18:13 25.48247 107.93138 38838 ft 495 kts 148°
2026-04-10 18:13 25.45366 107.95136 38847 ft 484 kts 160°
2026-04-10 18:13 25.42264 107.96513 38849 ft 477 kts 169°
2026-04-10 18:14 25.35825 107.97651 38851 ft 467 kts 179°
2026-04-10 18:14 25.29341 107.98344 38837 ft 470 kts 179°
2026-04-10 18:15 25.22801 107.99089 38827 ft 473 kts 179°
2026-04-10 18:15 25.16260 107.99879 38817 ft 473 kts 178°
2026-04-10 18:16 25.09727 108.00686 38821 ft 472 kts 178°
2026-04-10 18:16 25.03196 108.01490 38807 ft 472 kts 178°
2026-04-10 18:17 24.96697 108.02285 38807 ft 472 kts 178°
2026-04-10 18:17 24.90165 108.03081 38812 ft 471 kts 178°
2026-04-10 18:18 24.83646 108.03879 38800 ft 472 kts 178°
2026-04-10 18:18 24.77104 108.04678 38793 ft 473 kts 178°
2026-04-10 18:19 24.70558 108.05474 38786 ft 473 kts 178°
2026-04-10 18:19 24.64012 108.06270 38783 ft 473 kts 178°
2026-04-10 18:20 24.57460 108.07067 38788 ft 473 kts 178°
2026-04-10 18:20 24.50959 108.07857 38788 ft 473 kts 178°
2026-04-10 18:21 24.44426 108.08652 38787 ft 472 kts 178°
2026-04-10 18:21 24.37896 108.09447 38802 ft 472 kts 178°
2026-04-10 18:22 24.31365 108.10240 38803 ft 472 kts 178°
2026-04-10 18:22 24.24836 108.11034 38807 ft 472 kts 178°
2026-04-10 18:23 24.18305 108.11824 38807 ft 472 kts 178°
2026-04-10 18:23 24.11779 108.12614 38816 ft 471 kts 178°
2026-04-10 18:24 24.05256 108.13404 38819 ft 471 kts 178°
2026-04-10 18:24 23.98781 108.14187 38826 ft 470 kts 178°
2026-04-10 18:25 23.92273 108.14973 38831 ft 471 kts 177°
2026-04-10 18:25 23.87042 108.16809 38831 ft 483 kts 150°
2026-04-10 18:25 23.84448 108.19188 38845 ft 492 kts 134°
2026-04-10 18:26 23.82551 108.22269 38847 ft 500 kts 118°
2026-04-10 18:26 23.81391 108.25858 38782 ft 506 kts 101°
2026-04-10 18:26 23.81073 108.29680 38814 ft 505 kts 94°
2026-04-10 18:27 23.80781 108.37355 38828 ft 507 kts 93°
2026-04-10 18:27 23.80454 108.45053 38844 ft 508 kts 94°
2026-04-10 18:28 23.80034 108.52757 38836 ft 507 kts 95°
2026-04-10 18:28 23.79578 108.60440 38837 ft 506 kts 95°
2026-04-10 18:29 23.79120 108.68111 38840 ft 506 kts 95°
2026-04-10 18:29 23.78665 108.75779 38839 ft 505 kts 95°
2026-04-10 18:30 23.78207 108.83444 38834 ft 505 kts 95°
2026-04-10 18:30 23.77746 108.91093 38836 ft 505 kts 95°
2026-04-10 18:31 23.77284 108.98705 38835 ft 505 kts 95°
2026-04-10 18:31 23.76816 109.06360 38851 ft 504 kts 95°
2026-04-10 18:32 23.76310 109.14000 38842 ft 503 kts 98°
2026-04-10 18:32 23.75052 109.21453 38846 ft 501 kts 105°
2026-04-10 18:33 23.73486 109.28872 38842 ft 501 kts 105°
2026-04-10 18:33 23.71947 109.36296 38846 ft 502 kts 104°
2026-04-10 18:34 23.70440 109.43744 38836 ft 502 kts 104°
2026-04-10 18:34 23.68943 109.51153 38848 ft 502 kts 104°
2026-04-10 18:35 23.67429 109.58607 38845 ft 503 kts 104°
2026-04-10 18:35 23.65909 109.66053 38847 ft 503 kts 105°
2026-04-10 18:36 23.64372 109.73513 38858 ft 504 kts 105°
2026-04-10 18:36 23.62829 109.80980 38868 ft 504 kts 105°
2026-04-10 18:37 23.61281 109.88465 38873 ft 505 kts 105°
2026-04-10 18:37 23.59733 109.95935 38865 ft 505 kts 105°
2026-04-10 18:38 23.58179 110.03415 38865 ft 506 kts 105°
2026-04-10 18:38 23.56632 110.10838 38875 ft 506 kts 105°
2026-04-10 18:39 23.55069 110.18323 38861 ft 506 kts 105°
2026-04-10 18:39 23.53504 110.25800 38875 ft 506 kts 105°
2026-04-10 18:40 23.51935 110.33279 38868 ft 506 kts 105°
2026-04-10 18:40 23.50377 110.40766 38874 ft 507 kts 104°
2026-04-10 18:41 23.48868 110.48222 38866 ft 507 kts 104°
2026-04-10 18:41 23.47345 110.55742 38873 ft 507 kts 104°
2026-04-10 18:42 23.45813 110.63248 38878 ft 507 kts 104°
2026-04-10 18:42 23.44276 110.70752 38871 ft 507 kts 104°
2026-04-10 18:43 23.42713 110.78247 38877 ft 507 kts 105°
2026-04-10 18:43 23.41117 110.85739 38859 ft 505 kts 105°
2026-04-10 18:43 23.40328 110.89444 38728 ft 499 kts 105°
2026-04-10 18:44 23.39559 110.93058 38527 ft 493 kts 105°
2026-04-10 18:44 23.38780 110.96723 38173 ft 490 kts 105°
2026-04-10 18:44 23.38011 111.00332 37736 ft 489 kts 105°
2026-04-10 18:44 23.37253 111.03887 37314 ft 488 kts 105°
2026-04-10 18:45 23.36477 111.07522 36941 ft 485 kts 105°
2026-04-10 18:45 23.35725 111.11044 36600 ft 483 kts 105°
2026-04-10 18:45 23.34965 111.14595 36285 ft 480 kts 105°
2026-04-10 18:45 23.34225 111.18131 35962 ft 478 kts 104°
2026-04-10 18:46 23.33509 111.21660 35634 ft 476 kts 104°
2026-04-10 18:46 23.32808 111.25163 35322 ft 472 kts 104°
2026-04-10 18:46 23.32113 111.28635 34965 ft 467 kts 104°
2026-04-10 18:46 23.31421 111.32073 34569 ft 464 kts 104°
2026-04-10 18:47 23.30728 111.35496 34175 ft 462 kts 104°
2026-04-10 18:47 23.30037 111.38895 33782 ft 460 kts 104°
2026-04-10 18:47 23.29345 111.42290 33287 ft 458 kts 104°
2026-04-10 18:47 23.28659 111.45653 32872 ft 455 kts 104°
2026-04-10 18:48 23.27976 111.49003 32463 ft 452 kts 104°
2026-04-10 18:48 23.27296 111.52331 32051 ft 449 kts 104°
2026-04-10 18:48 23.26608 111.55642 31645 ft 447 kts 104°
2026-04-10 18:48 23.25907 111.58925 31249 ft 444 kts 105°
2026-04-10 18:49 23.25212 111.62154 30863 ft 443 kts 105°
2026-04-10 18:49 23.24512 111.65402 30479 ft 441 kts 105°
2026-04-10 18:49 23.23815 111.68644 30091 ft 440 kts 105°
2026-04-10 18:49 23.23121 111.71880 29648 ft 439 kts 105°
2026-04-10 18:50 23.22430 111.75103 29197 ft 436 kts 105°
2026-04-10 18:50 23.21745 111.78301 28762 ft 433 kts 105°
2026-04-10 18:50 23.21063 111.81477 28328 ft 430 kts 105°
2026-04-10 18:50 23.20389 111.84634 27902 ft 427 kts 104°
2026-04-10 18:51 23.19734 111.87775 27496 ft 424 kts 104°
2026-04-10 18:51 23.19091 111.90889 27087 ft 422 kts 104°
2026-04-10 18:51 23.18451 111.93991 26680 ft 419 kts 104°
2026-04-10 18:51 23.17814 111.97077 26276 ft 417 kts 104°
2026-04-10 18:52 23.17178 112.00147 25884 ft 415 kts 104°
2026-04-10 18:52 23.16545 112.03195 25486 ft 413 kts 104°
2026-04-10 18:52 23.15912 112.06235 25079 ft 412 kts 104°
2026-04-10 18:52 23.15281 112.09265 24690 ft 410 kts 105°
2026-04-10 18:53 23.14650 112.12284 24289 ft 409 kts 104°
2026-04-10 18:53 23.14020 112.15298 23889 ft 408 kts 104°
2026-04-10 18:53 23.13391 112.18304 23503 ft 407 kts 104°
2026-04-10 18:53 23.12762 112.21305 23051 ft 407 kts 104°
2026-04-10 18:54 23.12137 112.24291 22628 ft 404 kts 105°
2026-04-10 18:54 23.11514 112.27263 22224 ft 402 kts 105°
2026-04-10 18:54 23.10896 112.30210 21834 ft 399 kts 105°
2026-04-10 18:54 23.10280 112.33143 21441 ft 397 kts 105°
2026-04-10 18:55 23.09666 112.36064 21054 ft 395 kts 105°
2026-04-10 18:55 23.09055 112.38962 20667 ft 393 kts 105°
2026-04-10 18:55 23.08447 112.41848 20294 ft 391 kts 106°
2026-04-10 18:55 23.07840 112.44722 19902 ft 389 kts 106°
2026-04-10 18:56 23.07237 112.47581 19519 ft 387 kts 106°
2026-04-10 18:56 23.06835 112.50473 19123 ft 389 kts 95°
2026-04-10 18:56 23.06820 112.53365 18756 ft 388 kts 91°
2026-04-10 18:56 23.06886 112.56291 18367 ft 387 kts 91°
2026-04-10 18:57 23.06947 112.59221 17952 ft 387 kts 91°
2026-04-10 18:57 23.06980 112.62144 17518 ft 386 kts 92°
2026-04-10 18:57 23.06990 112.65054 17114 ft 384 kts 92°
2026-04-10 18:57 23.06988 112.67951 16722 ft 382 kts 92°
2026-04-10 18:58 23.06983 112.70828 16330 ft 380 kts 92°
2026-04-10 18:58 23.06975 112.73683 15940 ft 378 kts 92°
2026-04-10 18:58 23.06956 112.76527 15545 ft 376 kts 93°
2026-04-10 18:58 23.06932 112.79358 15154 ft 374 kts 93°
2026-04-10 18:59 23.06907 112.82170 14774 ft 372 kts 93°
2026-04-10 18:59 23.06882 112.84984 14380 ft 371 kts 93°
2026-04-10 18:59 23.06857 112.87774 13976 ft 370 kts 93°
2026-04-10 18:59 23.06833 112.90568 13547 ft 369 kts 93°
2026-04-10 19:00 23.06810 112.93303 13100 ft 360 kts 93°
2026-04-10 19:00 23.06788 112.95964 12711 ft 346 kts 93°
2026-04-10 19:00 23.06765 112.98531 12337 ft 333 kts 93°
2026-04-10 19:00 23.06744 113.01005 11984 ft 321 kts 93°
2026-04-10 19:01 23.06721 113.03397 11653 ft 312 kts 93°
2026-04-10 19:01 23.06698 113.05748 11340 ft 314 kts 93°
2026-04-10 19:01 23.06805 113.08181 11011 ft 333 kts 78°
2026-04-10 19:01 23.07769 113.10497 10665 ft 340 kts 49°
2026-04-10 19:02 23.09549 113.12050 10497 ft 322 kts 20°
2026-04-10 19:02 23.11642 113.12695 10400 ft 310 kts
2026-04-10 19:02 23.13704 113.13100 10299 ft 317 kts
2026-04-10 19:02 23.15876 113.13534 10237 ft 316 kts
2026-04-10 19:03 23.18008 113.13972 10193 ft 316 kts
2026-04-10 19:03 23.20191 113.14426 10083 ft 312 kts
2026-04-10 19:03 23.22297 113.14870 9969 ft 305 kts
2026-04-10 19:03 23.24371 113.15307 9867 ft 303 kts
2026-04-10 19:04 23.26432 113.15741 9763 ft 301 kts
2026-04-10 19:04 23.28487 113.16174 9652 ft 300 kts
2026-04-10 19:04 23.30508 113.16600 9532 ft 299 kts
2026-04-10 19:04 23.32550 113.17031 9424 ft 299 kts
2026-04-10 19:05 23.34599 113.17463 9311 ft 298 kts
2026-04-10 19:05 23.36635 113.17894 9206 ft 298 kts
2026-04-10 19:05 23.38666 113.18323 9095 ft 297 kts
2026-04-10 19:05 23.40695 113.18752 8992 ft 297 kts
2026-04-10 19:06 23.42730 113.19182 8879 ft 298 kts
2026-04-10 19:06 23.44078 113.19467 8804 ft 298 kts
2026-04-10 19:06 23.46114 113.19892 8707 ft 298 kts
2026-04-10 19:06 23.48155 113.20313 8586 ft 298 kts
2026-04-10 19:07 23.50192 113.20731 8479 ft 299 kts
2026-04-10 19:07 23.52238 113.21151 8372 ft 298 kts
2026-04-10 19:07 23.54271 113.21570 8243 ft 297 kts
2026-04-10 19:07 23.56299 113.21993 8130 ft 295 kts
2026-04-10 19:08 23.58315 113.22408 8033 ft 294 kts
2026-04-10 19:08 23.60314 113.22820 7937 ft 289 kts
2026-04-10 19:08 23.62255 113.23222 7808 ft 280 kts
2026-04-10 19:08 23.64144 113.23613 7699 ft 271 kts
2026-04-10 19:09 23.65972 113.23993 7592 ft 262 kts
2026-04-10 19:09 23.67755 113.24367 7495 ft 261 kts
2026-04-10 19:09 23.69535 113.24754 7426 ft 260 kts
2026-04-10 19:09 23.71306 113.25142 7315 ft 259 kts
2026-04-10 19:10 23.73066 113.25528 7216 ft 258 kts
2026-04-10 19:10 23.74824 113.25912 7127 ft 256 kts
2026-04-10 19:10 23.76550 113.26290 7044 ft 256 kts
2026-04-10 19:10 23.78295 113.26672 6943 ft 255 kts
2026-04-10 19:11 23.79944 113.27362 6835 ft 261 kts 34°
2026-04-10 19:11 23.81103 113.28893 6753 ft 265 kts 70°
2026-04-10 19:11 23.81342 113.30837 6669 ft 257 kts 105°
2026-04-10 19:11 23.80939 113.32712 6592 ft 254 kts 110°
2026-04-10 19:12 23.80500 113.34576 6488 ft 254 kts 110°
2026-04-10 19:12 23.80064 113.36439 6394 ft 251 kts 110°
2026-04-10 19:12 23.79637 113.38278 6294 ft 249 kts 111°
2026-04-10 19:12 23.79040 113.39850 6182 ft 232 kts 137°
2026-04-10 19:13 23.78314 113.40578 6145 ft 218 kts 159°
2026-04-10 19:13 23.76904 113.40947 6078 ft 206 kts 188°
2026-04-10 19:13 23.75466 113.40818 6015 ft 211 kts 190°
2026-04-10 19:13 23.74009 113.40645 5896 ft 210 kts 193°
2026-04-10 19:14 23.72560 113.40373 5651 ft 210 kts 195°
2026-04-10 19:14 23.71140 113.40037 5406 ft 207 kts 197°
2026-04-10 19:14 23.69762 113.39680 5157 ft 205 kts 197°
2026-04-10 19:14 23.68388 113.39312 4918 ft 202 kts 197°
2026-04-10 19:15 23.67041 113.38948 4722 ft 197 kts 197°
2026-04-10 19:15 23.65714 113.38586 4505 ft 196 kts 197°
2026-04-10 19:15 23.64385 113.38223 4319 ft 197 kts 196°
2026-04-10 19:15 23.63052 113.37859 4122 ft 197 kts 196°
2026-04-10 19:16 23.61732 113.37500 3902 ft 193 kts 195°
2026-04-10 19:16 23.60445 113.37150 3756 ft 187 kts 195°
2026-04-10 19:16 23.59193 113.36808 3542 ft 185 kts 195°
2026-04-10 19:16 23.57954 113.36471 3371 ft 182 kts 194°
2026-04-10 19:17 23.55536 113.35813 2987 ft 171 kts 194°
2026-04-10 19:17 23.54435 113.35514 2802 ft 153 kts 193°
2026-04-10 19:17 23.53453 113.35247 2621 ft 140 kts 193°
2026-04-10 19:18 23.52533 113.34996 2480 ft 141 kts 193°
2026-04-10 19:18 23.51614 113.34745 2274 ft 127 kts 193°
2026-04-10 19:18 23.50783 113.34519 2120 ft 121 kts 193°
2026-04-10 19:18 23.49986 113.34305 2001 ft 117 kts 192°
2026-04-10 19:19 23.49170 113.34081 1827 ft 121 kts 192°
2026-04-10 19:19 23.48348 113.33860 1665 ft 122 kts 192°
2026-04-10 19:19 23.47525 113.33636 1505 ft 123 kts 191°
2026-04-10 19:19 23.46687 113.33408 1346 ft 125 kts 191°
2026-04-10 19:20 23.45833 113.33177 1179 ft 128 kts 191°
2026-04-10 19:20 23.44967 113.32942 1022 ft 128 kts 193°
2026-04-10 19:20 23.44091 113.32703 867 ft 131 kts 192°
2026-04-10 19:20 23.43213 113.32463 679 ft 132 kts 192°
2026-04-10 19:21 23.42310 113.32219 487 ft 130 kts 193°
2026-04-10 19:21 23.41418 113.31976 322 ft 133 kts 193°
2026-04-10 19:21 23.40515 113.31730 141 ft 132 kts 193°
2026-04-10 19:21 23.39636 113.31494 59 ft 120 kts 193°
2026-04-10 19:22 23.38941 113.31306 55 ft 79 kts 194°
2026-04-10 19:22 23.38555 113.31201 55 ft 35 kts 194°
2026-04-10 19:22 23.38412 113.31163 60 ft 18 kts 194°
2026-04-10 19:22 23.38313 113.31132 55 ft 18 kts 204°
2026-04-10 19:23 23.38209 113.31062 58 ft 18 kts 219°
2026-04-10 19:23 23.38148 113.31003 55 ft 10 kts 222°
2026-04-10 19:23 23.38097 113.30953 59 ft 10 kts 222°
2026-04-10 19:23 23.38046 113.30903 57 ft 10 kts 222°
2026-04-10 19:24 23.38012 113.30840 56 ft 10 kts 258°
2026-04-10 19:24 23.38018 113.30766 60 ft 10 kts 282°
2026-04-10 19:24 23.38034 113.30693 57 ft 10 kts 284°
2026-04-10 19:24 23.38051 113.30621 57 ft 10 kts 284°
2026-04-10 19:25 23.38066 113.30558 63 ft 8 kts 284°
2026-04-10 19:25 23.38090 113.30502 57 ft 8 kts 317°
2026-04-10 19:25 23.38145 113.30491 55 ft 8 kts
2026-04-10 19:25 23.38222 113.30508 56 ft 17 kts 12°
2026-04-10 19:26 23.38347 113.30544 55 ft 19 kts 14°
2026-04-10 19:26 23.38475 113.30578 58 ft 19 kts 13°
2026-04-10 19:26 23.38602 113.30612 57 ft 19 kts 14°
2026-04-10 19:26 23.38729 113.30646 56 ft 19 kts 14°
2026-04-10 19:27 23.38854 113.30681 59 ft 19 kts 14°
2026-04-10 19:27 23.38983 113.30716 60 ft 19 kts 14°
2026-04-10 19:27 23.39110 113.30750 55 ft 19 kts 14°
2026-04-10 19:27 23.39237 113.30784 57 ft 19 kts 14°
2026-04-10 19:28 23.39359 113.30817 60 ft 16 kts 14°
2026-04-10 19:28 23.39464 113.30845 58 ft 16 kts 14°
2026-04-10 19:28 23.39571 113.30874 60 ft 16 kts 14°
2026-04-10 19:28 23.39678 113.30902 57 ft 16 kts 14°
2026-04-10 19:29 23.39783 113.30931 58 ft 16 kts 14°
2026-04-10 19:29 23.39879 113.30956 56 ft 9 kts 14°
2026-04-10 19:29 23.39929 113.30970 55 ft 7 kts 13°
2026-04-10 19:29 23.39977 113.30956 55 ft 7 kts 320°
2026-04-10 19:30 23.39998 113.30906 57 ft 7 kts 286°
2026-04-10 19:30 23.40010 113.30853 58 ft 7 kts 283°
2026-04-10 19:30 23.40044 113.30815 57 ft 7 kts 343°
2026-04-10 19:30 23.40088 113.30815 56 ft 6 kts
2026-04-10 19:31 23.40130 113.30816 58 ft 6 kts 346°
2026-04-10 19:31 23.40155 113.30787 55 ft 4 kts 293°
2026-04-10 19:31 23.40160 113.30756 59 ft 4 kts 276°
2026-04-10 19:31 23.40160 113.30727 63 ft 2 kts 268°
2026-04-10 19:32 23.40159 113.30712 55 ft 2 kts 267°
2026-04-10 19:32 23.40159 113.30703 56 ft 0 kts 266°